QPF
0.00 0.00 0.00 0.00 0.00 0.00 0.00 0.00 0.00 0.00 0.00 0.00 0.00 0.00 0.00 0.00 0.00 0.00 0.00 0.00 0.00 0.00 0.00 0.00 0.00 0.00 0.00 0.00 0.00 0.00 0.00 0.00 0.00 0.00 0.00 0.00 0.00 0.00 0.00 0.00 0.00 0.00 0.02
0.00 0.00 0.00 0.00 0.00 0.00 0.00 0.00 0.00 0.00 0.00 0.00 0.00 0.00 0.00 0.00 0.00 0.00 0.00 0.00 0.00 0.00 0.00 0.00 0.00 0.00 0.00 0.00 0.00 0.00 0.00 0.00 0.00 0.00 0.00 0.00 0.00 0.01 0.08 0.03 0.03 0.08 0.03
0.00 0.01 0.00 0.00 0.00 0.00 0.00 0.00 0.00 0.00 0.00 0.00 0.00 0.00 0.00 0.00 0.00 0.00 0.00 0.00 0.00 0.00 0.00 0.00 0.00 0.00 0.00 0.00 0.00 0.00 0.00 0.01 0.00 0.00 0.00 0.02 0.03 0.04 0.03 0.04 0.04 0.05 0.05
0.00 0.00 0.00 0.00 0.00 0.00 0.00 0.00 0.00 0.00 0.00 0.00 0.00 0.00 0.00 0.00 0.00 0.00 0.00 0.00 0.00 0.00 0.00 0.00 0.00 0.00 0.00 0.00 0.00 0.00 0.02 0.02 0.01 0.00 0.00 0.04 0.06 0.08 0.06 0.05 0.03 0.02 0.02
0.00 0.00 0.00 0.00 0.00 0.00 0.00 0.00 0.00 0.00 0.00 0.00 0.00 0.00 0.00 0.00 0.00 0.00 0.00 0.00 0.00 0.00 0.00 0.00 0.00 0.00 0.00 0.00 0.00 0.00 0.00 0.02 0.01 0.00 0.00 0.00 0.01 0.01 0.05 0.08 0.01 0.01 0.10
0.01 0.01 0.00 0.00 0.00 0.00 0.00 0.00 0.00 0.00 0.00 0.00 0.00 0.00 0.00 0.00 0.00 0.00 0.00 0.00 0.00 0.00 0.00 0.00 0.00 0.00 0.00 0.00 0.00 0.00 0.00 0.00 0.00 0.00 0.00 0.00 0.00 0.00 0.00 0.10 0.09 0.01 0.08
0.00 0.05 0.02 0.00 0.00 0.00 0.00 0.00 0.00 0.00 0.00 0.00 0.00 0.00 0.00 0.00 0.00 0.00 0.00 0.00 0.00 0.00 0.00 0.00 0.00 0.00 0.00 0.00 0.00 0.00 0.00 0.00 0.00 0.00 0.00 0.00 0.00 0.00 0.00 0.00 0.02 0.00 0.03
0.01 0.00 0.01 0.00 0.00 0.00 0.00 0.00 0.00 0.00 0.00 0.00 0.00 0.00 0.00 0.00 0.00 0.00 0.00 0.00 0.00 0.00 0.00 0.00 0.00 0.00 0.00 0.00 0.00 0.00 0.00 0.00 0.00 0.00 0.00 0.00 0.00 0.00 0.00 0.00 0.00 0.00 0.00
0.00 0.02 0.01 0.00 0.00 0.00 0.00 0.00 0.00 0.00 0.00 0.00 0.00 0.00 0.00 0.00 0.00 0.00 0.00 0.00 0.00 0.00 0.00 0.00 0.00 0.00 0.00 0.00 0.00 0.00 0.00 0.00 0.00 0.00 0.00 0.00 0.00 0.00 0.00 0.00 0.00 0.00 0.00
0.00 0.05 0.03 0.01 0.00 0.00 0.00 0.00 0.00 0.00 0.00 0.00 0.00 0.00 0.00 0.00 0.00 0.00 0.00 0.00 0.00 0.00 0.00 0.00 0.00 0.00 0.00 0.00 0.00 0.00 0.00 0.00 0.00 0.00 0.00 0.00 0.00 0.00 0.00 0.00 0.00 0.00 0.00
0.03 0.05 0.05 0.00 0.00 0.00 0.00 0.00 0.00 0.01 0.00 0.00 0.00 0.00 0.00 0.00 0.00 0.00 0.00 0.00 0.00 0.00 0.00 0.00 0.00 0.00 0.00 0.00 0.00 0.00 0.00 0.00 0.00 0.00 0.00 0.00 0.00 0.00 0.00 0.00 0.00 0.00 0.00
0.00 0.00 0.01 0.00 0.00 0.00 0.00 0.00 0.00 0.00 0.00 0.00 0.00 0.00 0.00 0.00 0.00 0.00 0.00 0.00 0.00 0.00 0.00 0.00 0.00 0.00 0.00 0.00 0.00 0.00 0.00 0.00 0.00 0.00 0.00 0.00 0.00 0.00 0.00 0.00 0.00 0.00 0.00
0.05 0.01 0.04 0.05 0.01 0.00 0.00 0.00 0.00 0.00 0.00 0.00 0.00 0.00 0.00 0.00 0.00 0.00 0.00 0.00 0.00 0.00 0.00 0.00 0.00 0.00 0.00 0.00 0.00 0.00 0.00 0.00 0.00 0.00 0.00 0.00 0.00 0.00 0.00 0.00 0.00 0.00 0.00
0.01 0.00 0.01 0.04 0.02 0.00 0.00 0.00 0.00 0.00 0.00 0.00 0.00 0.00 0.00 0.00 0.00 0.00 0.00 0.00 0.00 0.00 0.00 0.00 0.00 0.00 0.00 0.00 0.00 0.00 0.00 0.00 0.00 0.00 0.00 0.00 0.00 0.00 0.00 0.00 0.00 0.00 0.00
0.00 0.00 0.00 0.05 0.07 0.04 0.01 0.00 0.00 0.00 0.00 0.00 0.00 0.00 0.00 0.00 0.00 0.00 0.00 0.00 0.00 0.00 0.00 0.00 0.00 0.00 0.00 0.00 0.00 0.00 0.00 0.00 0.00 0.00 0.00 0.00 0.00 0.00 0.00 0.00 0.00 0.00 0.00
0.01 0.00 0.02 0.01 0.02 0.00 0.06 0.04 0.00 0.00 0.01 0.00 0.00 0.00 0.00 0.00 0.00 0.00 0.00 0.00 0.00 0.00 0.00 0.00 0.00 0.00 0.00 0.00 0.00 0.00 0.00 0.00 0.00 0.00 0.00 0.00 0.00 0.00 0.00 0.00 0.00 0.00 0.00
0.06 0.00 0.03 0.01 0.00 0.00 0.03 0.02 0.03 0.00 0.03 0.02 0.01 0.00 0.00 0.00 0.00 0.00 0.00 0.00 0.00 0.00 0.00 0.00 0.00 0.00 0.00 0.00 0.00 0.00 0.00 0.00 0.00 0.00 0.00 0.00 0.00 0.00 0.00 0.00 0.00 0.00 0.00
0.04 0.00 0.01 0.00 0.02 0.01 0.00 0.00 0.04 0.03 0.05 0.06 0.05 0.02 0.02 0.00 0.00 0.00 0.00 0.00 0.00 0.00 0.00 0.00 0.00 0.00 0.00 0.00 0.00 0.00 0.00 0.00 0.00 0.00 0.00 0.00 0.00 0.00 0.00 0.00 0.00 0.00 0.00
0.03 0.00 0.00 0.02 0.02 0.01 0.00 0.00 0.04 0.04 0.06 0.09 0.06 0.05 0.07 0.04 0.04 0.02 0.03 0.04 0.01 0.00 0.01 0.00 0.00 0.00 0.00 0.00 0.00 0.00 0.00 0.00 0.00 0.00 0.00 0.00 0.00 0.00 0.00 0.00 0.00 0.00 0.00
0.01 0.00 0.00 0.02 0.03 0.04 0.00 0.00 0.00 0.00 0.04 0.07 0.13 0.08 0.09 0.05 0.06 0.07 0.04 0.07 0.03 0.03 0.04 0.02 0.00 0.00 0.00 0.00 0.00 0.00 0.00 0.00 0.00 0.00 0.00 0.00 0.00 0.00 0.00 0.00 0.00 0.00 0.00
0.00 0.00 0.00 0.00 0.00 0.00 0.00 0.00 0.00 0.00 0.00 0.02 0.09 0.10 0.08 0.06 0.05 0.06 0.05 0.12 0.08 0.05 0.05 0.02 0.00 0.00 0.00 0.00 0.00 0.00 0.00 0.00 0.00 0.00 0.00 0.00 0.00 0.00 0.00 0.00 0.00 0.00 0.00
0.00 0.00 0.00 0.00 0.01 0.00 0.00 0.00 0.00 0.01 0.02 0.02 0.03 0.08 0.07 0.07 0.09 0.04 0.03 0.04 0.06 0.08 0.06 0.04 0.00 0.00 0.00 0.00 0.00 0.00 0.00 0.00 0.00 0.00 0.00 0.00 0.00 0.00 0.00 0.00 0.00 0.00 0.00
0.00 0.00 0.00 0.00 0.02 0.02 0.01 0.01 0.02 0.03 0.07 0.08 0.03 0.03 0.03 0.03 0.01 0.01 0.02 0.01 0.01 0.01 0.01 0.04 0.00 0.00 0.00 0.00 0.00 0.00 0.00 0.00 0.00 0.00 0.00 0.00 0.00 0.00 0.00 0.00 0.00 0.00 0.00
0.00 0.00 0.00 0.00 0.00 0.01 0.01 0.01 0.01 0.01 0.01 0.01 0.00 0.00 0.00 0.02 0.03 0.01 0.00 0.00 0.01 0.01 0.01 0.00 0.00 0.00 0.00 0.00 0.00 0.00 0.00 0.00 0.00 0.00 0.00 0.00 0.00 0.00 0.00 0.00 0.00 0.00 0.00
0.00 0.00 0.00 0.00 0.00 0.00 0.00 0.02 0.06 0.07 0.07 0.15 0.10 0.09 0.10 0.05 0.08 0.07 0.01 0.01 0.00 0.01 0.02 0.00 0.00 0.00 0.00 0.00 0.00 0.00 0.00 0.00 0.00 0.00 0.00 0.00 0.00 0.00 0.00 0.00 0.00 0.00 0.00
0.00 0.00 0.00 0.00 0.00 0.00 0.00 0.01 0.05 0.07 0.09 0.11 0.12 0.09 0.07 0.04 0.04 0.04 0.02 0.00 0.00 0.02 0.02 0.01 0.01 0.00 0.00 0.00 0.00 0.00 0.00 0.00 0.00 0.00 0.00 0.00 0.00 0.00 0.00 0.00 0.00 0.00 0.00
MSLP
1022.24 1022.31 1022.51 1022.45 1022.53 1022.43 1022.36 1022.34 1022.18 1021.97 1021.99 1021.76 1021.68 1021.82 1021.94 1022.06 1022.13 1022.15 1022.24 1022.74 1022.81 1022.90 1022.90 1022.85 1022.76 1022.70 1022.58 1022.41 1022.24 1022.10 1021.88 1021.65 1021.40 1021.14 1020.86 1020.53 1020.30 1020.08 1019.93 1019.73 1019.77 1019.75 1019.93
1022.39 1022.39 1022.46 1022.51 1022.55 1022.46 1022.50 1022.49 1022.29 1021.99 1021.85 1021.68 1021.78 1021.85 1021.91 1021.97 1022.13 1022.18 1022.13 1022.29 1022.76 1022.82 1022.84 1022.80 1022.74 1022.63 1022.44 1022.24 1022.08 1021.94 1021.75 1021.47 1021.21 1020.92 1020.66 1020.23 1019.92 1019.59 1019.44 1019.23 1019.14 1019.24 1019.43
1022.50 1022.57 1022.45 1022.46 1022.51 1022.66 1022.57 1022.39 1022.15 1021.99 1021.72 1021.66 1021.78 1021.78 1021.76 1021.86 1021.81 1022.00 1022.04 1022.11 1022.17 1022.64 1022.70 1022.66 1022.60 1022.47 1022.28 1022.08 1021.87 1021.68 1021.50 1021.21 1020.96 1020.64 1020.32 1019.88 1019.69 1019.20 1019.02 1018.86 1018.70 1018.64 1019.01
1022.56 1022.54 1022.54 1022.53 1022.56 1022.47 1022.26 1022.08 1021.94 1021.92 1021.91 1021.83 1021.77 1021.69 1021.67 1021.76 1021.80 1021.90 1021.95 1022.04 1022.04 1021.96 1022.21 1022.39 1022.36 1022.22 1022.05 1021.85 1021.64 1021.47 1021.14 1020.91 1020.56 1020.43 1020.08 1019.84 1019.42 1019.09 1018.69 1018.57 1018.33 1018.22 1018.36
1022.56 1022.51 1022.46 1022.51 1022.68 1022.51 1022.31 1022.09 1022.05 1022.05 1021.86 1021.81 1021.68 1021.64 1021.47 1021.44 1021.56 1021.45 1021.77 1021.88 1021.86 1021.90 1021.78 1021.87 1022.06 1021.94 1021.82 1021.62 1021.44 1021.22 1020.99 1020.66 1020.44 1020.16 1019.96 1019.64 1019.25 1019.10 1018.78 1018.40 1018.24 1018.11 1018.04
1022.60 1022.50 1022.52 1022.63 1022.64 1022.34 1022.39 1022.32 1022.36 1022.13 1022.08 1021.99 1021.56 1021.40 1021.46 1021.31 1021.38 1021.35 1021.36 1021.48 1021.60 1021.64 1021.50 1021.66 1021.48 1021.18 1021.47 1021.45 1021.22 1021.01 1020.79 1020.54 1020.25 1019.99 1019.87 1019.62 1019.27 1018.99 1018.76 1018.48 1018.22 1018.14 1018.02
1022.57 1022.51 1022.51 1022.68 1022.65 1022.58 1022.63 1022.50 1022.50 1022.39 1022.08 1022.15 1021.62 1021.26 1021.32 1021.34 1021.19 1021.14 1021.18 1021.18 1021.34 1021.30 1021.31 1021.25 1021.30 1021.14 1020.96 1020.99 1020.86 1020.74 1020.55 1020.34 1020.14 1019.90 1019.68 1019.53 1019.24 1018.99 1018.74 1018.58 1018.34 1018.21 1017.99
1022.56 1022.58 1022.67 1022.62 1022.64 1022.64 1022.81 1022.77 1022.66 1022.39 1022.40 1022.48 1021.99 1021.73 1021.11 1021.06 1020.92 1021.02 1021.05 1021.03 1021.09 1021.06 1021.02 1021.13 1021.18 1021.13 1020.94 1020.54 1020.43 1020.52 1020.40 1020.25 1020.00 1019.75 1019.51 1019.36 1019.24 1019.07 1018.81 1018.64 1018.52 1018.35 1018.23
1022.36 1022.62 1022.67 1022.63 1022.78 1022.78 1022.80 1022.86 1022.73 1022.72 1022.35 1022.62 1022.59 1022.18 1021.43 1021.27 1021.32 1021.08 1021.08 1021.06 1021.14 1020.87 1020.94 1020.98 1020.91 1020.88 1020.78 1020.48 1020.30 1020.00 1020.15 1020.05 1019.83 1019.58 1019.35 1019.17 1019.06 1019.00 1018.84 1018.68 1018.55 1018.48 1018.32
1022.23 1022.30 1022.52 1022.77 1022.96 1022.88 1022.98 1022.86 1022.62 1022.83 1022.64 1022.46 1022.54 1022.59 1022.60 1022.41 1021.59 1020.88 1020.96 1021.00 1021.01 1020.83 1021.00 1020.81 1020.63 1020.57 1020.62 1020.29 1020.25 1020.27 1020.18 1019.94 1019.65 1019.38 1019.26 1019.09 1018.84 1018.74 1018.78 1018.73 1018.56 1018.42 1018.35
1022.08 1022.22 1022.51 1022.72 1022.84 1022.78 1023.02 1022.97 1022.98 1022.70 1022.86 1022.71 1022.61 1022.52 1022.54 1022.37 1022.31 1021.72 1020.96 1020.88 1020.78 1020.95 1020.84 1020.76 1020.69 1020.55 1020.50 1020.35 1020.04 1019.93 1020.06 1019.80 1019.56 1019.36 1019.08 1018.92 1018.71 1018.54 1018.59 1018.69 1018.49 1018.47 1018.35
1021.67 1021.91 1022.15 1022.45 1022.64 1022.73 1022.89 1022.82 1022.96 1022.98 1022.96 1022.99 1022.89 1022.80 1022.53 1022.33 1022.14 1021.86 1021.46 1021.30 1021.10 1020.94 1020.94 1020.75 1020.77 1020.64 1020.38 1020.16 1020.02 1020.21 1019.96 1019.73 1019.52 1019.33 1018.95 1018.72 1018.57 1018.34 1018.38 1018.50 1018.36 1018.36 1018.37
1021.89 1021.95 1022.02 1022.29 1022.39 1022.60 1022.77 1022.92 1022.95 1023.00 1022.96 1022.89 1023.02 1022.85 1022.87 1022.73 1022.64 1022.40 1021.96 1021.56 1021.36 1021.16 1020.96 1020.84 1020.83 1020.71 1020.27 1020.30 1020.09 1020.33 1019.77 1019.78 1019.54 1019.35 1019.01 1018.58 1018.40 1018.19 1018.19 1018.29 1018.16 1018.21 1018.21
1021.58 1021.72 1021.86 1022.21 1022.38 1022.50 1022.68 1022.89 1022.76 1022.64 1022.82 1022.96 1023.03 1023.09 1022.90 1022.87 1022.87 1022.64 1022.29 1021.99 1021.38 1021.27 1021.11 1021.08 1020.67 1020.55 1020.57 1020.48 1020.42 1020.26 1019.54 1019.78 1019.54 1019.33 1019.14 1018.65 1018.33 1018.10 1018.05 1018.09 1018.03 1018.03 1018.01
1021.40 1021.65 1021.91 1022.04 1022.19 1022.42 1022.54 1022.71 1022.70 1022.78 1022.86 1022.92 1022.91 1023.04 1022.97 1022.85 1022.80 1022.71 1022.58 1022.37 1022.04 1021.25 1020.84 1020.87 1020.62 1020.60 1020.52 1020.30 1020.28 1020.03 1019.75 1019.74 1019.64 1019.41 1019.15 1018.71 1018.39 1018.06 1017.97 1017.97 1017.95 1017.82 1017.80
1021.56 1021.59 1021.82 1021.90 1022.08 1022.16 1022.24 1022.54 1022.70 1022.60 1022.71 1022.74 1022.80 1022.97 1022.98 1022.74 1022.68 1022.63 1022.50 1022.37 1022.28 1021.94 1021.22 1021.09 1020.74 1020.81 1020.68 1020.39 1019.94 1019.87 1019.55 1019.60 1019.32 1019.24 1019.05 1018.69 1018.35 1018.03 1017.80 1017.78 1017.66 1017.48 1017.44
1021.39 1021.61 1021.69 1021.86 1022.04 1022.06 1021.95 1022.34 1022.44 1022.56 1022.64 1022.70 1022.81 1022.81 1022.74 1022.75 1022.47 1022.44 1022.45 1022.36 1022.16 1022.10 1021.60 1021.01 1021.29 1020.96 1020.95 1020.60 1020.19 1019.81 1019.26 1019.00 1018.56 1018.74 1018.64 1018.48 1018.20 1017.99 1017.65 1017.42 1017.42 1017.32 1017.10
1021.11 1021.35 1021.44 1021.58 1021.72 1021.79 1021.76 1022.00 1022.18 1022.27 1022.40 1022.47 1022.49 1022.56 1022.48 1022.38 1022.41 1022.42 1022.31 1022.35 1022.18 1022.24 1021.99 1021.42 1021.15 1020.90 1020.87 1020.52 1020.24 1019.91 1019.26 1018.72 1018.63 1018.22 1018.32 1018.14 1017.93 1017.72 1017.39 1017.09 1016.88 1016.82 1016.76
1020.89 1020.96 1021.25 1021.35 1021.52 1021.64 1021.76 1021.86 1021.96 1022.03 1022.05 1022.31 1022.24 1022.17 1022.14 1022.25 1022.14 1022.03 1022.16 1022.24 1021.91 1021.92 1021.86 1021.56 1020.96 1020.70 1020.61 1020.21 1019.86 1019.33 1019.11 1018.78 1018.18 1017.92 1017.61 1017.48 1017.48 1017.35 1017.03 1016.84 1016.53 1016.38 1016.31
1020.78 1020.89 1021.09 1021.25 1021.25 1021.50 1021.71 1021.82 1021.92 1021.94 1021.92 1021.97 1022.04 1022.00 1021.94 1021.87 1021.99 1022.06 1022.04 1022.05 1021.89 1021.89 1021.58 1021.48 1020.81 1020.30 1020.12 1019.95 1019.86 1019.18 1018.60 1018.26 1017.94 1017.59 1017.22 1017.21 1017.12 1016.76 1016.37 1016.17 1016.01 1015.91 1015.90
1020.94 1021.02 1021.06 1021.21 1021.06 1021.20 1021.34 1021.85 1021.86 1021.75 1021.68 1021.53 1021.52 1021.48 1021.24 1021.23 1021.64 1021.78 1022.22 1022.01 1021.92 1021.79 1021.56 1021.06 1020.51 1020.00 1019.66 1019.28 1019.15 1019.02 1018.56 1018.00 1017.59 1017.22 1017.22 1016.72 1015.99 1015.85 1015.36 1015.17 1015.12 1015.35 1015.52
1021.08 1021.20 1021.26 1021.44 1021.68 1021.79 1022.41 1022.12 1021.93 1021.64 1021.36 1021.26 1021.13 1021.05 1020.90 1021.13 1021.18 1021.85 1021.78 1021.78 1022.03 1021.72 1021.37 1021.08 1020.35 1019.70 1019.71 1019.43 1019.03 1018.84 1018.62 1018.05 1017.21 1016.59 1016.92 1016.36 1015.82 1015.33 1014.88 1014.51 1014.81 1014.90 1015.11
1021.35 1021.50 1021.61 1021.67 1022.16 1022.62 1022.61 1022.11 1021.74 1021.43 1021.20 1021.26 1021.34 1021.38 1021.25 1021.30 1021.55 1021.50 1021.06 1021.24 1021.33 1021.41 1021.46 1021.24 1020.48 1019.90 1019.51 1019.30 1019.14 1018.86 1018.47 1018.18 1017.44 1016.72 1016.54 1015.80 1015.41 1014.90 1014.52 1014.01 1014.42 1014.48 1014.60
1021.56 1021.58 1021.91 1022.51 1022.76 1023.22 1022.92 1022.17 1021.64 1021.46 1021.67 1021.90 1022.08 1022.17 1022.37 1022.93 1023.11 1022.85 1021.99 1021.38 1021.06 1020.73 1020.58 1020.48 1019.94 1019.66 1019.32 1019.04 1019.16 1018.92 1018.61 1018.22 1017.42 1016.46 1015.96 1015.44 1014.79 1014.39 1014.14 1013.94 1013.90 1014.14 1014.19
1022.08 1021.92 1022.36 1023.13 1023.39 1023.83 1023.76 1022.98 1022.46 1022.43 1022.52 1022.86 1022.83 1022.90 1022.96 1023.12 1023.58 1023.07 1022.56 1022.17 1021.50 1020.69 1020.13 1020.37 1020.50 1020.38 1019.89 1019.66 1019.55 1018.98 1017.99 1017.38 1016.31 1015.59 1015.28 1015.22 1014.59 1014.11 1013.84 1013.26 1013.15 1013.44 1013.75
1022.51 1022.73 1023.26 1023.86 1024.61 1024.68 1024.66 1023.98 1023.64 1023.43 1023.48 1023.35 1023.17 1022.96 1023.53 1023.28 1023.60 1023.47 1022.98 1022.37 1021.77 1021.24 1020.71 1020.12 1019.70 1019.24 1019.01 1018.35 1018.56 1018.58 1017.85 1017.00 1016.39 1015.63 1014.94 1015.20 1014.50 1014.20 1013.42 1012.86 1012.71 1012.68 1012.56
Thickness
5738 5738 5737 5737 5737 5738 5739 5739 5741 5743 5745 5748 5750 5751 5752 5753 5754 5755 5755 5754 5754 5753 5753 5754 5754 5754 5754 5754 5755 5754 5754 5754 5754 5753 5752 5752 5750 5747 5744 5740 5733 5728 5719
5740 5740 5740 5740 5741 5742 5742 5743 5744 5747 5749 5752 5753 5754 5755 5757 5758 5758 5759 5759 5758 5757 5757 5757 5758 5757 5758 5759 5759 5759 5759 5759 5759 5758 5756 5756 5755 5754 5751 5748 5742 5735 5726
5743 5744 5745 5745 5745 5745 5746 5748 5750 5752 5754 5756 5756 5758 5761 5762 5763 5763 5763 5763 5764 5763 5762 5762 5762 5762 5763 5764 5764 5764 5764 5764 5764 5763 5762 5762 5760 5760 5757 5754 5750 5743 5733
5746 5747 5748 5748 5749 5750 5751 5753 5755 5757 5757 5759 5760 5763 5765 5766 5768 5768 5768 5768 5768 5769 5768 5768 5768 5768 5769 5769 5769 5769 5770 5770 5770 5768 5767 5765 5765 5764 5762 5760 5756 5750 5743
5750 5750 5751 5751 5751 5753 5755 5757 5758 5759 5761 5762 5765 5767 5769 5771 5773 5775 5773 5773 5773 5773 5773 5774 5773 5774 5774 5774 5774 5775 5775 5775 5775 5773 5771 5770 5769 5766 5766 5764 5761 5756 5750
5751 5753 5753 5754 5754 5756 5757 5758 5758 5761 5763 5764 5769 5771 5772 5775 5776 5777 5778 5778 5777 5777 5778 5778 5779 5780 5780 5780 5780 5780 5779 5779 5778 5777 5774 5773 5772 5770 5768 5767 5765 5760 5755
5753 5755 5755 5754 5755 5757 5757 5758 5760 5760 5764 5766 5769 5772 5774 5777 5780 5781 5781 5781 5780 5781 5782 5783 5783 5783 5784 5784 5785 5784 5783 5782 5781 5780 5778 5776 5775 5773 5772 5769 5767 5764 5761
5755 5756 5756 5757 5757 5758 5757 5758 5760 5761 5763 5765 5764 5766 5764 5773 5781 5783 5783 5783 5783 5784 5785 5785 5785 5785 5785 5787 5788 5787 5786 5785 5784 5783 5782 5780 5777 5775 5774 5771 5768 5766 5763
5758 5756 5757 5758 5758 5758 5758 5759 5761 5761 5761 5763 5766 5765 5762 5760 5769 5781 5782 5784 5784 5787 5786 5786 5786 5786 5787 5788 5789 5790 5789 5788 5787 5786 5785 5783 5781 5779 5776 5774 5772 5768 5767
5759 5758 5758 5758 5757 5757 5758 5760 5762 5762 5764 5762 5766 5768 5767 5766 5764 5766 5781 5783 5786 5788 5786 5787 5788 5788 5788 5789 5788 5789 5790 5790 5790 5789 5788 5786 5785 5783 5779 5776 5775 5772 5769
5761 5760 5759 5758 5758 5758 5758 5759 5761 5764 5764 5764 5764 5766 5766 5768 5768 5767 5766 5775 5785 5786 5787 5787 5787 5788 5788 5788 5790 5790 5791 5792 5791 5792 5791 5790 5788 5786 5782 5778 5777 5775 5773
5764 5763 5762 5761 5761 5760 5760 5761 5760 5761 5763 5764 5765 5766 5766 5764 5765 5768 5768 5770 5773 5781 5785 5786 5786 5787 5788 5789 5790 5790 5791 5793 5793 5792 5793 5794 5791 5790 5786 5781 5780 5777 5775
5761 5763 5762 5761 5762 5761 5760 5759 5760 5761 5763 5765 5764 5766 5767 5767 5768 5769 5769 5770 5769 5777 5781 5786 5785 5785 5787 5787 5789 5788 5791 5791 5793 5792 5793 5795 5794 5792 5788 5784 5782 5779 5777
5764 5764 5763 5762 5760 5760 5760 5759 5761 5763 5762 5764 5764 5765 5767 5768 5768 5769 5769 5768 5768 5771 5776 5775 5784 5784 5784 5785 5786 5788 5791 5790 5792 5791 5792 5794 5794 5793 5790 5787 5784 5782 5780
5763 5763 5762 5763 5761 5760 5760 5760 5762 5762 5763 5765 5766 5765 5766 5768 5769 5770 5770 5770 5767 5763 5769 5778 5778 5783 5783 5785 5787 5788 5789 5790 5790 5790 5791 5793 5793 5794 5792 5789 5786 5785 5782
5762 5763 5762 5761 5761 5762 5761 5761 5760 5763 5764 5766 5766 5765 5765 5768 5770 5770 5771 5772 5771 5768 5765 5777 5780 5782 5781 5783 5787 5788 5789 5790 5790 5790 5791 5792 5793 5793 5793 5791 5789 5788 5786
5762 5763 5762 5763 5761 5762 5764 5761 5763 5764 5763 5764 5765 5766 5767 5767 5770 5770 5771 5772 5771 5770 5767 5776 5778 5780 5779 5782 5784 5786 5790 5791 5793 5791 5791 5792 5793 5793 5793 5794 5792 5790 5789
5761 5761 5762 5763 5764 5763 5763 5763 5764 5764 5765 5764 5765 5766 5767 5770 5769 5769 5770 5769 5770 5770 5768 5767 5776 5778 5778 5781 5782 5784 5789 5792 5790 5792 5791 5792 5793 5793 5795 5796 5795 5794 5792
5761 5761 5760 5761 5762 5762 5763 5764 5765 5765 5766 5764 5765 5766 5766 5767 5768 5771 5769 5767 5772 5771 5770 5769 5773 5780 5780 5782 5785 5787 5788 5789 5792 5794 5795 5795 5795 5795 5796 5797 5798 5798 5797
5760 5760 5758 5758 5761 5760 5761 5763 5763 5764 5764 5764 5764 5765 5765 5766 5767 5768 5769 5768 5770 5768 5770 5769 5773 5777 5780 5783 5783 5784 5787 5792 5792 5794 5797 5797 5797 5798 5800 5801 5800 5800 5799
5754 5755 5755 5755 5758 5759 5761 5762 5762 5762 5762 5765 5766 5766 5768 5768 5766 5768 5767 5768 5769 5768 5768 5770 5773 5777 5779 5782 5781 5784 5785 5791 5794 5797 5795 5799 5804 5803 5805 5806 5806 5803 5801
5747 5748 5749 5748 5748 5752 5750 5754 5756 5759 5762 5763 5765 5766 5767 5766 5766 5764 5766 5767 5765 5766 5768 5768 5772 5774 5774 5778 5783 5782 5782 5782 5784 5801 5796 5796 5803 5805 5808 5809 5806 5806 5804
5739 5739 5740 5743 5741 5740 5742 5749 5750 5755 5758 5758 5757 5757 5759 5762 5757 5760 5764 5764 5766 5766 5765 5766 5768 5771 5773 5777 5780 5779 5782 5782 5785 5795 5797 5795 5803 5804 5807 5809 5806 5806 5805
5729 5732 5732 5729 5730 5729 5734 5740 5742 5746 5747 5746 5745 5746 5745 5741 5741 5744 5753 5759 5762 5765 5767 5768 5770 5771 5773 5775 5775 5778 5779 5781 5787 5794 5798 5792 5804 5803 5807 5806 5807 5805 5804
5718 5723 5719 5715 5717 5717 5720 5726 5728 5729 5729 5728 5729 5730 5731 5733 5731 5736 5743 5745 5749 5756 5759 5760 5761 5763 5766 5768 5769 5772 5776 5778 5784 5791 5797 5794 5799 5801 5805 5808 5807 5806 5802
5709 5707 5701 5698 5695 5701 5705 5710 5711 5715 5715 5716 5718 5721 5720 5723 5725 5727 5733 5738 5741 5745 5748 5753 5757 5760 5762 5767 5767 5766 5771 5772 5776 5780 5790 5785 5793 5793 5795 5806 5805 5802 5803